Das Wetter in  D-61279 Heinzenberg / Taunus





Wetter Minimum- & Maximum-Werte im November 2012

Standort: Heinzenberg / Taunus - Höhe 297 m         8 24' 1" Ost 50 21' 51" Nord
(   3-stündige Aktualisierung    letzte Aktualisierung um 19:04 am 30.11.2012  )


Messgrösse

Minimum

Maximum

Durchschnitt

Temperatur West /
Luftfeuchte West
Anklicken für Monats-Diagramm

-4,1 C

23:49
30.11.2012

57 %

10:38
25.11.2012

12,6 C

09:13
25.11.2012

93 %

10:03
20.11.2012

Temp

5,2 C

Feuchte

84 %

Temperatur Ost /
Luftfeuchte Ost
Anklicken für Monats-Diagramm

-3,6 C

23:39
30.11.2012

--

--
--

12,8 C

10:08
25.11.2012

--

--
--

5,3 C

--

Luftdruck Anklicken für Monats-Diagramm

986,7 hPa

13:06
01.11.2012

1034,9 hPa

09:52
13.11.2012

1014,0 hPa

Taupunkt

-6,5 C

23:49
30.11.2012

9,2 C

01:36
11.11.2012

2,7 C

Windchill
( gefühlte Temperatur )

-8,8 C

09:24
21.11.2012

11,8 C

14:42
24.11.2012

2,8 C

Windgeschwindigkeit /
Windrichtung
Anklicken für Monats-Diagramm

---

65,2 km/h / W-SW

17:36
01.11.2012

7,7 km/h
W-SW

Helligkeit /
Sonnenschein
Anklicken für Monats-Diagramm
Anklicken für Monats-Diagramm

Sonnenschein:

29:16 Stunden

Max: 7:52 Std am
13.11.2012

63,9 klux

12:32
02.11.2012

8,1 klux

Solarstrahlung Anklicken für Monats-Diagramm

---

437 W/m

12:32
02.11.2012

61 W/m

Regenmenge
    November 2012
Anklicken für Monats-Diagramm

Insgesamt 45,6 l/m

in 49:35 Stunden
an 20 Tagen

10,3 l/m

10:25
10.11.2012

Gesamtmenge

45,6 l/m

Regen-Tage
    November 2012
Anklicken für Monats-Diagramm

>   0 mm/Tag

>   2 mm/Tag

>   5 mm/Tag

> 10 mm/Tag

> 20 mm/Tag

20 Tage     
7 Tage     
4 Tage     
  1 Tag     
0 Tage     

Eisige Tage November 2012 / 2011

Tmin ≤ -10C     

0 Tage

/

0 Tage

Eistage November 2012 / 2011

Tmax <     0C     

0 Tage

/

0 Tage

Frosttage November 2012 / 2011

Tmin ≤     0C     

8 Tage

/

14 Tage

Kalte Tage November 2012 / 2011

Tmax <   10C     

22 Tage

/

19 Tage

Warme Tage November 2012 / 2011

Tmax ≥   20C     

0 Tage

/

0 Tage

Sommertage November 2012 / 2011

Tmax ≥   25C     

0 Tage

/

0 Tage

Heisse Tage November 2012 / 2011

Tmax ≥   30C     

0 Tage

/

0 Tage


Monatsdiagramm November 2012

Die Kurven zeigen den Durchschnittswert des jeweiligen Tages an


Wetter-Monatsübersicht November 2012
Datum
  Temperatur
   Luftdruck
   Wind
  Regen
   Luftfeuchte
   Helligkeit

Sonnen-
schein


Temp.

Min.
Temp.

Max.
Temp.


Luftdruck

Min.
Luftdruck

Max.
Luftdruck

-Geschw.
Haupt-Richtg.

Max.
Wind

Menge /
Dauer


Feuchte

Min.
Feuchte

Max.
Feuchte


Helligkeit

Max.
Helligkeit

1.
November
6,5 C2,1 C
00:01
10,9 C
13:06
990,4 hPa986,7 hPa
13:06
996,1 hPa
00:01
13,0 km/h
W-SW
65,2 km/h
17:36  
3,2 l/m
2:35 Stunden
81 %66 %
13:06
87 %
09:06
13,78 klux46,00 klux
12:36
1:20 Std 
2.
November
6,6 C5,4 C
04:02
9,1 C
12:42
999,3 hPa993,5 hPa
00:22
1001,9 hPa
23:58
22,0 km/h
W-SW
55,9 km/h
11:12  
7,1 l/m
5:55 Stunden
78 %63 %
12:13
89 %
21:07
19,2 klux63,9 klux
12:32
3:59 Std 
3.
November
6,9 C4,8 C
02:43
9,4 C
15:48
1002,6 hPa998,3 hPa
14:08
1005,9 hPa
23:19
14,4 km/h
W-SW
43,8 km/h
14:08  
5,6 l/m
3:54 Stunden
86 %84 %
04:03
89 %
14:13
4,6 klux13,2 klux
10:13
--- 
4.
November
7,4 C6,6 C
03:39
8,2 C
10:34
1002,2 hPa998,4 hPa
18:29
1005,9 hPa
03:39
11,7 km/h
W-SW
37,3 km/h
14:09  
3,5 l/m
3:10 Stunden
86 %80 %
10:44
88 %
15:39
3,8 klux10,4 klux
09:19
--- 
5.
November
6,7 C4,5 C
23:56
10,1 C
14:10
1003,2 hPa1000,6 hPa
00:00
1010,3 hPa
23:56
12,2 km/h
W-SW
30,1 km/h
13:00  
4,1 l/m
3:35 Stunden
81 %67 %
14:15
89 %
22:21
11,0 klux49,2 klux
13:15
50 Min 
6.
November
5,1 C3,5 C
01:26
8,4 C
15:51
1017,2 hPa1010,3 hPa
00:01
1020,6 hPa
18:11
14,2 km/h
W
35,5 km/h
22:11  
---
40 Minuten
83 %72 %
14:41
90 %
01:46
12,2 klux45,7 klux
13:16
2:20 Std 
7.
November
7,3 C5,3 C
00:37
9,1 C
14:47
1024,1 hPa1020,5 hPa
02:52
1026,5 hPa
18:12
21,7 km/h
W
41,2 km/h
03:32  
---
45 Minuten
84 %77 %
21:27
88 %
07:27
4,2 klux12,0 klux
12:57
--- 
8.
November
7,6 C6,8 C
22:54
9,8 C
13:58
1021,3 hPa1019,0 hPa
13:58
1025,4 hPa
00:58
14,7 km/h
W-SW
42,4 km/h
13:38  
---
77 %69 %
14:38
80 %
20:33
8,3 klux52,5 klux
13:53
45 Min 
9.
November
7,1 C4,3 C
22:04
11,1 C
13:34
1016,8 hPa1011,2 hPa
22:50
1020,5 hPa
08:49
3,6 km/h
W-SW
19,6 km/h
13:14  
---
78 %63 %
13:14
85 %
08:59
12,8 klux50,7 klux
12:59
1:00 Std 
10.
November
7,4 C3,9 C
00:30
10,4 C
23:51
1005,2 hPa1000,5 hPa
18:30
1011,4 hPa
00:30
2,1 km/h
O-SO
16,4 km/h
23:21  
10,3 l/m
8:55 Stunden
88 %82 %
00:00
91 %
18:50
2,4 klux8,2 klux
13:55
--- 
11.
November
8,0 C2,6 C
23:57
10,9 C
01:51
1011,8 hPa1003,3 hPa
01:01
1022,0 hPa
23:57
3,7 km/h
NW
20,3 km/h
04:06  
0,2 l/m
5 Minuten
86 %80 %
14:36
90 %
00:01
7,52 klux28,60 klux
10:21
15 Min 
12.
November
4,4 C0,6 C
23:57
8,2 C
14:27
1026,3 hPa1022,0 hPa
00:02
1031,6 hPa
23:57
1,8 km/h
W-SW
16,3 km/h
13:17  
---
84 %70 %
14:32
91 %
05:17
7,9 klux49,1 klux
13:12
15 Min 
13.
November
1,7 C-2,0 C
07:32
9,2 C
14:12
1032,9 hPa1031,5 hPa
15:12
1034,9 hPa
09:52
1,0 km/h
W-NW
6,7 km/h
14:42  
---
84 %73 %
15:22
90 %
11:07
23,7 klux41,0 klux
12:02
7:52 Std 
14.
November
1,0 C-3,0 C
07:43
4,3 C
15:18
1030,5 hPa1026,0 hPa
23:49
1033,9 hPa
00:33
4,3 km/h
O-SO
27,2 km/h
20:28  
---
88 %86 %
00:03
90 %
09:53
6,7 klux25,8 klux
09:33
1:10 Std 
15.
November
2,7 C1,5 C
18:44
3,7 C
03:34
1024,7 hPa1023,1 hPa
17:29
1027,1 hPa
00:04
5,1 km/h
SO
18,0 km/h
05:44  
---
85 %84 %
04:49
86 %
00:04
2,3 klux4,8 klux
11:49
--- 
16.
November
1,9 C-1,4 C
23:46
3,8 C
14:15
1020,2 hPa1018,3 hPa
22:51
1022,1 hPa
00:00
1,8 km/h
SO
14,3 km/h
01:45  
---
83 %79 %
14:20
86 %
00:00
5,03 klux10,90 klux
13:45
--- 
17.
November
2,0 C-1,6 C
00:21
4,4 C
22:21
1014,7 hPa1012,4 hPa
22:21
1018,4 hPa
00:21
1,7 km/h
O-SO
16,5 km/h
12:56  
---
35 Minuten
88 %86 %
00:01
91 %
23:42
4,5 klux11,0 klux
12:01
--- 
18.
November
6,0 C4,4 C
00:02
7,5 C
15:22
1013,7 hPa1011,3 hPa
04:12
1017,3 hPa
23:53
0,0 km/h
O-SO
4,3 km/h
07:37  
1,8 l/m
3:51 Stunden
92 %91 %
00:02
92 %
07:57
4,2 klux11,0 klux
11:07
--- 
19.
November
6,2 C1,9 C
23:53
8,7 C
14:18
1018,5 hPa1017,3 hPa
00:03
1020,0 hPa
23:53
2,8 km/h
O-SO
17,1 km/h
15:53  
---
90 %86 %
14:33
92 %
00:03
9,0 klux42,2 klux
11:23
45 Min 
20.
November
1,8 C-0,7 C
04:38
3,5 C
14:08
1020,9 hPa1020,0 hPa
23:44
1022,2 hPa
09:03
4,3 km/h
O-SO
26,0 km/h
16:18  
---
10 Minuten
92 %90 %
02:18
93 %
10:03
3,6 klux7,6 klux
11:53
--- 
21.
November
2,7 C1,0 C
18:49
5,6 C
23:30
1018,4 hPa1016,6 hPa
15:09
1020,7 hPa
21:44
8,7 km/h
O-SO
24,1 km/h
05:24  
0,2 l/m
55 Minuten
90 %87 %
14:14
92 %
00:04
6,42 klux15,30 klux
13:09
--- 
22.
November
4,4 C-0,6 C
23:56
10,6 C
14:20
1023,6 hPa1020,5 hPa
00:00
1026,0 hPa
10:10
2,6 km/h
W-SW
20,0 km/h
02:10  
---
10 Minuten
87 %76 %
16:15
92 %
11:30
20,4 klux39,5 klux
12:00
6:10 Std 
23.
November
4,8 C-1,6 C
03:36
8,0 C
22:27
1020,1 hPa1018,2 hPa
14:46
1023,5 hPa
00:21
6,9 km/h
W-SW
30,2 km/h
11:41  
---
55 Minuten
86 %81 %
14:36
92 %
06:51
6,7 klux14,6 klux
11:26
--- 
24.
November
8,8 C6,4 C
08:42
11,8 C
14:22
1017,6 hPa1013,9 hPa
23:43
1020,4 hPa
09:42
4,2 km/h
O-SO
24,2 km/h
22:43  
---
5 Minuten
81 %75 %
14:27
88 %
10:32
9,0 klux43,2 klux
12:12
25 Min 
25.
November
9,9 C5,3 C
23:59
12,6 C
09:13
1012,7 hPa1009,4 hPa
05:48
1016,3 hPa
21:58
25,4 km/h
W-SW
59,6 km/h
12:18  
---
68 %57 %
10:38
81 %
00:03
8,5 klux39,0 klux
13:58
1:15 Std 
26.
November
5,9 C1,9 C
07:24
9,2 C
14:59
1009,0 hPa1004,6 hPa
16:44
1015,4 hPa
00:44
4,0 km/h
W-SW
25,1 km/h
10:29  
9,0 l/m
10:35 Stunden
85 %73 %
00:04
90 %
13:49
2,3 klux7,2 klux
11:54
--- 
27.
November
7,1 C5,6 C
21:50
8,2 C
12:00
1005,7 hPa1004,7 hPa
02:00
1007,1 hPa
22:36
4,5 km/h
W-SW
18,6 km/h
10:05  
0,6 l/m
1:40 Stunden
85 %81 %
11:35
89 %
22:15
6,60 klux15,70 klux
10:35
--- 
28.
November
5,1 C3,8 C
09:51
6,4 C
14:06
1004,1 hPa1001,9 hPa
19:51
1006,1 hPa
03:16
4,2 km/h
N
25,1 km/h
22:22  
---
87 %77 %
22:57
92 %
10:16
4,3 klux14,3 klux
12:51
--- 
29.
November
2,9 C1,3 C
23:23
4,7 C
00:02
1002,3 hPa1000,0 hPa
03:02
1005,5 hPa
23:23
11,5 km/h
NW
25,1 km/h
11:27  
---
1:00 Stunden
78 %73 %
07:27
85 %
23:48
2,7 klux9,0 klux
11:27
--- 
30.
November
0,2 C-4,1 C
23:49
3,3 C
15:03
1009,8 hPa1005,5 hPa
01:03
1014,6 hPa
23:49
1,7 km/h
NW
15,6 km/h
13:23  
---
5 Minuten
80 %69 %
16:08
85 %
00:03
8,24 klux42,90 klux
13:13
55 Min 



November
2012

Temperatur

  

Luftdruck

  

Wind

  

Regen

  

Luftfeuchte

  

Helligkeit

Sonnen-
schein

Min

Max

Min

Max

Max

Max

Min

Max

Max

Max

5,2 C

-4,1 C

23:49 Uhr
30.11.2012

12,6 C

09:13 Uhr
25.11.2012

1014,0 hPa

986,7 hPa

13:06 Uhr
01.11.2012

1034,9 hPa

09:52 Uhr
13.11.2012

7,7 km/h

W-SW

65,2 km/h

17:36 Uhr
01.11.2012

10,3 l/m

8:55 Stunden
10.11.2012

84 %

57 %

10:38 Uhr
25.11.2012

93 %

10:03 Uhr
20.11.2012

8,1 klux

63,90 klux

12:32 Uhr
02.11.2012

7:52 Std

am
13.11.2012

Gesamt

Gesamt

45,6 l/m

20 Tage
49:35 h

29:16 Std


Wetter-Diagramme November 2012     Heinzenberg / Taunus   
TemperaturLuftfeuchte
SolarstrahlungLuftdruck
HelligkeitSonnenschein
RegenmengeRegendauer
Wind-GeschwindigkeitWind-Richtung